Home   Weather   Steinbach   Past weeks

Flag for Canada Past Weather in Steinbach, Manitoba, Canada — Yesterday and Last 2 Weeks

Now
32 °F

Chilly.


Feels Like: 29 °F
Forecast: 23 / 30 °F
Wind: 3 mph from Southwest

Location: Winnipeg The Forks Man

Current Time: Jan 23, 2017 at 2:39:58 am

Latest Report: Jan 23, 2017 at 2:00 am


Visibility: N/A

Pressure: 29.75 "Hg

Humidity: 85%

Dew Point: 28 °F

Location of SteinbachLocation

Past Weather in Steinbach — Graph

°F

Steinbach Temperature Yesterday

Maximum temperature yesterday: 35 °F (at 1:00 pm)
Minimum temperature yesterday: 31 °F (at 10:00 pm)
Average temperature yesterday: 34 °F

High & Low Weather Summary for the Past Weeks

 TemperatureHumidityPressure
High37 °F (Jan 20, 2:00 pm)100% (Jan 20, 1:00 pm)30.72 "Hg (Jan 20, 1:00 pm)
Low-23 °F (Jan 13, 6:00 am)56% (Jan 11, 3:00 pm)29.46 "Hg (Jan 21, 4:00 am)
Average12 °F78%29.92 "Hg
* Reported Jan 8 1:00 am — Jan 23 1:00 am, Steinbach, Weather by CustomWeather, © 2017

Note: Actual official high and low records may vary slightly from our data, if they occured in-between our weather recording intervals... More about our weather records

Advertising

Steinbach Weather History for the Previous 24 Hours

Scroll right to see more
 ConditionsComfort  
Time TempWeatherWind HumidityBarometerVisibility
1:00 am
Mon, Jan 23
32 °FChilly.3 mph87%29.75 "HgN/A
12:00 am32 °FChilly.3 mph90%29.75 "HgN/A
11:00 pm
Sun, Jan 22
32 °FChilly.3 mph94%29.76 "HgN/A
10:00 pm31 °FChilly.3 mph100%29.75 "HgN/A
9:00 pm33 °FChilly.3 mph95%29.75 "HgN/A
8:00 pm33 °FChilly.2 mph96%29.75 "HgN/A
7:00 pm33 °FChilly.2 mph95%29.75 "HgN/A
6:00 pm33 °FChilly.3 mph95%29.76 "HgN/A
5:00 pm34 °FChilly.3 mph92%29.75 "HgN/A
4:00 pm34 °FChilly.No wind96%29.75 "HgN/A
3:00 pm35 °FChilly.1 mph97%29.74 "HgN/A
2:00 pm34 °FChilly.2 mph97%29.72 "HgN/A
1:00 pm35 °FChilly.1 mph97%29.73 "HgN/A
12:00 pm35 °FChilly.1 mph97%29.74 "HgN/A
11:00 am35 °FChilly.No wind97%29.74 "HgN/A
10:00 am34 °FChilly.1 mph97%29.73 "HgN/A
9:00 am33 °FChilly.1 mph92%29.72 "HgN/A
8:00 am33 °FChilly.2 mph93%29.70 "HgN/A
7:00 am33 °FChilly.1 mph93%29.69 "HgN/A
6:00 am33 °FChilly.1 mph93%29.69 "HgN/A
5:00 am33 °FChilly.2 mph93%29.68 "HgN/A
4:00 am34 °FChilly.1 mph91%29.68 "HgN/A
3:00 am35 °FChilly.1 mph96%29.67 "HgN/A
2:00 am34 °FChilly.2 mph96%29.64 "HgN/A
Weather by CustomWeather, © 2017

See weather overviewHow to use our weather pages